Location: ?????
(32.7281°N, 34.9563°E)
Time: 02:17:40
(UTC+00:00)

Envisat - Pass Details

Date: 29 October 2020
Orbit: 764 x 766 km, 98.1° (Epoch: 25 November)

Event Time Altitude Azimuth Distance (km) Brightness Sun altitude
Rises 15:17:03 0° 180° (S) 3,216 6.4 -6.0°
Reaches altitude 10° 15:19:24 10° 185° (S) 2,294 5.7 -6.5°
Maximum altitude 15:24:18 50° 260° (W) 973 4.1 -7.5°
Drops below altitude 10° 15:29:13 10° 336° (NNW) 2,306 5.7 -8.5°
Sets 15:31:37 0° 341° (NNW) 3,236 6.3 -9.0°
